Regional Weather Roundup
Issued by NWS Cleveland, OH

Home | Current Version | Previous Version | Text Only | Print | Product List | Glossary Off
Versions: 1 2 3 4 5 6 7 8 9 10 11 12 13 14 15 16 17 18 19 20 21 22 23 24 25 26 27 28 29 30 31 32 33 34 35 36 37 38 39 40 41 42 43 44 45 46 47 48 49 50

000
ASUS41 KCLE 250702
RWRCLE
OHIO REGIONAL WEATHER ROUNDUP
NATIONAL WEATHER SERVICE CLEVELAND, OH
300 AM EDT FRI APR 25 2014

NOTE: "FAIR" INDICATES FEW OR NO CLOUDS BELOW 12,000 FEET WITH NO
SIGNIFICANT WEATHER AND/OR OBSTRUCTIONS TO VISIBILITY.

OHZ001>008-015>018-024>027-034-035-043-044-250800-
   NORTHWEST OHIO

CITY           SKY/WX    TMP DP  RH WIND       PRES   REMARKS
DEFIANCE       CLOUDY    46  29  51 NE6       29.73F
FINDLAY        PTCLDY    50  27  40 SE12      29.72F
TOLEDO EXPRESS MOCLDY    46  30  53 E6        29.75F
TOLEDO EXEC    MOCLDY    45  34  65 NE6       29.77F
LIMA           MOCLDY    54  26  34 SE12      29.71F
$$

OHZ009>014-019>023-028>033-038-089-250800-
   NORTHEAST OHIO

CITY           SKY/WX    TMP DP  RH WIND       PRES   REMARKS
CLE-HOPKINS    MOCLDY    53  22  29 SE10      29.83F
CLE-LAKEFRONT  PTCLDY    52  22  30 SE13G23   29.78F
CUY CO. ARPT   NOT AVBL
LORAIN-ELYRIA  MOCLDY    53  24  32 SE13      29.79F
ASHTABULA      PTCLDY    46  22  38 SE7       29.85F
AKRON-CANTON   MOCLDY    52  22  31 SE7       29.83F
WOOSTER        MOCLDY    49  26  41 SE10      29.82F
MANSFIELD      CLOUDY    52  23  32 SE14      29.79F
YOUNGSTOWN     MOCLDY    49  22  34 E13       29.84F
$$

OHZ042-051>053-060>062-070>072-077>081-250800-
  SOUTHWEST OHIO

CITY           SKY/WX    TMP DP  RH WIND       PRES   REMARKS
CINC-COVINGTON CLOUDY    59  31  34 S9        29.70F
CINC-LUNKEN    CLOUDY    49  44  83 VRB7      29.71F
HAMILTON       CLOUDY    60  29  30 VRB3      29.71F
DAYTON         CLOUDY    57  24  28 SE14      29.71F
WRIGHT-PAT AFB CLOUDY    56  23  27 SE9       29.71F
DAYTON GENERAL CLOUDY    57  24  28 SE12      29.69F
WILMINGTON     MOCLDY    55  24  30 SE12      29.72F
$$

OHZ036-037-039>041-045>050-054>059-063>069-073>076-082>088-250800-
  CENTRAL AND SOUTHEAST OHIO

CITY           SKY/WX    TMP DP  RH WIND       PRES   REMARKS
COLUMBUS       CLOUDY    56  21  25 SE9       29.77F
OSU AIRPORT    CLOUDY    55  21  26 SE10      29.76F
BOLTON FIELD   NOT AVBL
RICKENBACK AFB NOT AVBL
NEWARK         MOCLDY    51  25  36 CALM      29.78F
MARION         CLOUDY    53  23  31 SE12      29.76F
LANCASTER      MOCLDY    52  24  33 SE7       29.78F
ZANESVILLE     MOCLDY    50  24  36 E5        29.81F
NEW PHILLY     PTCLDY    47  25  42 CALM      29.84F
$$



USA.gov is the U.S. government's official web portal to all federal, state and local government web resources and services.